TimeCDT,TemperatureF,Dew PointF,Humidity,Sea Level PressureIn,VisibilityMPH,Wind Direction,Wind SpeedMPH,Gust SpeedMPH,PrecipitationIn,Events,Conditions,WindDirDegrees,DateUTC
12:53 AM,63.0,50.0,63,29.96,10.0,South,4.6,-,N/A,,Clear,170,2012-10-04 05:53:00
1:53 AM,60.1,50.0,69,29.98,10.0,SSE,5.8,-,N/A,,Clear,160,2012-10-04 06:53:00
2:53 AM,60.1,50.0,69,29.97,10.0,South,8.1,-,N/A,,Partly Cloudy,170,2012-10-04 07:53:00
3:53 AM,61.0,50.0,67,29.98,10.0,SSW,9.2,-,N/A,,Clear,210,2012-10-04 08:53:00
4:53 AM,62.1,50.0,65,30.03,10.0,West,10.4,21.9,N/A,,Scattered Clouds,280,2012-10-04 09:53:00
5:53 AM,57.9,43.0,58,30.09,10.0,North,15.0,24.2,N/A,,Clear,350,2012-10-04 10:53:00
6:53 AM,55.9,42.1,60,30.10,10.0,North,6.9,-,N/A,,Mostly Cloudy,10,2012-10-04 11:53:00
7:53 AM,54.0,42.1,64,30.14,10.0,North,8.1,-,N/A,,Clear,350,2012-10-04 12:53:00
8:53 AM,55.9,43.0,62,30.17,10.0,NNW,15.0,-,N/A,,Clear,330,2012-10-04 13:53:00
9:53 AM,54.0,43.0,66,30.21,10.0,North,15.0,25.3,N/A,,Mostly Cloudy,350,2012-10-04 14:53:00
10:46 AM,53.6,42.8,67,30.23,10.0,NNW,16.1,24.2,N/A,,Overcast,340,2012-10-04 15:46:00
10:53 AM,53.1,42.1,66,30.22,10.0,North,15.0,24.2,N/A,,Mostly Cloudy,350,2012-10-04 15:53:00
11:46 AM,53.6,42.8,67,30.25,10.0,North,13.8,23.0,N/A,,Mostly Cloudy,350,2012-10-04 16:46:00
11:53 AM,54.0,42.1,64,30.25,10.0,North,11.5,-,N/A,,Overcast,360,2012-10-04 16:53:00
12:53 PM,53.1,41.0,64,30.25,10.0,NNW,17.3,21.9,N/A,,Overcast,340,2012-10-04 17:53:00
1:53 PM,51.1,39.9,66,30.25,10.0,North,12.7,-,N/A,,Overcast,360,2012-10-04 18:53:00
2:53 PM,50.0,37.9,63,30.25,10.0,North,9.2,-,N/A,,Overcast,10,2012-10-04 19:53:00
3:53 PM,51.1,37.0,59,30.24,10.0,NNE,9.2,-,N/A,,Overcast,20,2012-10-04 20:53:00
5:53 PM,53.1,39.9,61,30.23,10.0,NE,3.5,-,N/A,,Overcast,40,2012-10-04 22:53:00
6:53 PM,53.1,39.9,61,30.24,10.0,Calm,Calm,-,N/A,,Overcast,0,2012-10-04 23:53:00
7:53 PM,53.1,39.9,61,30.24,10.0,Calm,Calm,-,N/A,,Overcast,0,2012-10-05 00:53:00
8:53 PM,53.1,42.1,66,30.24,10.0,Calm,Calm,-,N/A,,Overcast,0,2012-10-05 01:53:00
9:53 PM,52.0,44.1,74,30.24,10.0,Calm,Calm,-,N/A,,Overcast,0,2012-10-05 02:53:00
10:53 PM,53.1,39.9,61,30.25,10.0,North,6.9,-,N/A,,Overcast,360,2012-10-05 03:53:00
11:53 PM,54.0,36.0,51,30.26,10.0,North,10.4,-,N/A,,Overcast,360,2012-10-05 04:53:00